ATLAS 5 CENTAUR DEB, 43983

Orbit data source: Space-Track

ATLAS 5 CENTAUR DEB, 43983 is space debris in HEO originally from a launch on Wed, 17 Sep 2014 UTC launched from the Air Force Eastern Test Range (AFETR). Debris objects in space refer to the collection of defunct objects orbiting the Earth. Examples of debris include non-operational satellites, rocket bodies, and fragments generated from explosions, collisions, or faulty payload assembly.

Loading next visibility...
Identifier
43983, 2014-055AN
Orbit
HEO
Country
Flag of USUS
Related business
Flag of USUnited Launch Alliance/Lockheed Martin (US)
Manufacturer
Unknown
Mission
Spacecraft
Bus & Motor
Unknown
Mass
Unknown
Launch date (UTC)
2014-09-17 (12 years ago)
Launch vehicle
Unknown
Launch site
Air Force Eastern Test Range (AFETR)
Object type
Payload
Rocket body
Debris
Shape & HBR
Unknown shape, 1.1 m
Radar Cross Section
Medium (>0.1 m² and <1 m²)

Expand to show TLE details & history
Last TLE update: 2 days ago

TLE from 2 days ago
0 ATLAS 5 CENTAUR DEB
1 43983U 14055AN  26171.09463098 -.00000061  00000-0  00000+0 0  9995
2 43983  20.7628 116.2267 4875760 213.6765 102.6901  1.90079137 54056
Epoch: 2026-06-20T02:16Z
TLE epoch observation values (Epoch: 2026-06-20T02:16:16.116Z)
Latitude
0.00002°
Longitude
173.7976°
Altitude
28,951.888 km
Speed
2.843 km/s
True Right ascension
07h 44m 42s
True Declination
0° 00' 00"
Sunlit
Object was in daylight at epoch
Visualization orbit readout
Latitude
Unknown
Longitude
Unknown
Altitude
Unknown
Speed
Unknown
Apparent Right ascension
Unknown
Apparent Declination
Unknown
Sunlit
N/A
Visualization observer readout
Local Sidereal Time
21:37:40
Azimuth
Unknown
Elevation
Unknown
Doppler factor
Unknown
Orbital elements
Apogee altitude
34,575.18 km
Perigee altitude
7,729.016 km
Semi-major axis
27,530.235 km
Eccentricity
0.48758
Inclination
20.7628°
RAAN
116.2267°
Arg. of periapsis
213.6765°
True anomaly
146.32646°
Mean anomaly
102.6901°
Eccentric anomaly
125.44799°
Mean motion
0.47515 °/min
Orbital period
757.66 mins
BSTAR
0
Loading maneuver chart data...
Computing Atmospheric mass density...

Documentation

Showing up to 5 results
|